Date String (YYYY-MM-DD hh:mm:ss) UTC,Instrument flags,Ambient pressure (hPa),Sample flow (lpm),Bypass flow (lpm),Sample temperature (°C),Ambient temperature (°C),ASC tube jacket temperature (°C),LED temperature (°C),Box temperature (°C),Sample RH (%),Span deviation,Mass concentration (μg/m³),Mass concentration (μg/m³),Mass concentration (μg/m³)
DateTimeUTC,F1_M11,P_M11,Q1_M11,Q2_M11,T1_M11,T2_M11,T3_M11,T4_M11,T5_M11,U1_M11,ZSPAN_M11,X2_M11,X0_M11,X1_M11
2023-04-11 07:00:00,,0835.1,5.00,0.00,28.2,26.3,00.0,36.7,29.7,09.7,0000.0,0003.46,0011.91,0001.79
2023-04-11 07:01:00,,0835.1,5.00,0.00,28.2,26.3,00.0,36.6,29.7,09.8,0000.0,0003.41,0011.87,0001.80
2023-04-11 07:02:00,,0835.1,5.00,0.00,28.2,26.3,00.0,36.6,29.7,09.8,0000.0,0003.41,0011.67,0001.80
2023-04-11 07:03:00,,0835.2,5.00,0.00,28.2,26.3,00.0,36.6,29.7,09.8,0000.0,0003.39,0011.03,0001.79
2023-04-11 07:04:00,,0835.2,5.00,0.00,28.2,26.3,00.0,36.6,29.7,09.9,0000.0,0003.37,0010.79,0001.80
2023-04-11 07:05:00,,0835.1,5.00,0.00,28.1,26.3,00.0,36.6,29.7,09.9,0000.0,0003.37,0010.60,0001.80
2023-04-11 07:06:00,,0835.2,4.99,0.00,28.1,26.3,00.0,36.6,29.6,09.8,0000.0,0003.35,0010.24,0001.79
2023-04-11 07:07:00,,0835.2,5.00,0.00,28.1,26.3,00.0,36.6,29.6,09.9,0000.0,0003.38,0010.94,0001.81
2023-04-11 07:08:00,,0835.1,5.00,0.00,28.1,26.3,00.0,36.6,29.6,10.0,0000.0,0003.42,0010.89,0001.83
2023-04-11 07:09:00,,0835.2,5.01,0.00,28.1,26.3,00.0,36.6,29.6,10.0,0000.0,0003.42,0011.02,0001.82
2023-04-11 07:10:00,,0835.1,5.00,0.00,28.1,26.3,00.0,36.5,29.6,09.9,0000.0,0003.40,0011.59,0001.82
2023-04-11 07:11:00,,0835.1,5.01,0.00,28.1,26.3,00.0,36.5,29.6,09.9,0000.0,0003.45,0011.46,0001.83
2023-04-11 07:12:00,,0835.1,5.01,0.00,28.1,26.3,00.0,36.5,29.6,09.8,0000.0,0003.45,0011.89,0001.83
2023-04-11 07:13:00,,0835.1,5.01,0.00,28.1,26.3,00.0,36.5,29.6,09.8,0000.0,0003.47,0012.57,0001.83
2023-04-11 07:14:00,,0835.0,4.99,0.00,28.1,26.2,00.0,36.5,29.5,09.8,0000.0,0003.51,0012.52,0001.84
2023-04-11 07:15:00,,0835.0,4.99,0.00,28.1,26.2,00.0,36.5,29.5,09.8,0000.0,0003.51,0012.87,0001.84
2023-04-11 07:16:00,,0835.0,5.00,0.00,28.0,26.2,00.0,36.5,29.5,09.8,0000.0,0003.51,0013.76,0001.85
2023-04-11 07:17:00,,0835.0,5.00,0.00,28.0,26.2,00.0,36.5,29.5,09.8,0000.0,0003.54,0013.88,0001.86
2023-04-11 07:18:00,,0835.0,5.00,0.00,28.0,26.2,00.0,36.4,29.5,09.8,0000.0,0003.57,0013.35,0001.89
2023-04-11 07:19:00,,0834.9,5.00,0.00,28.0,26.2,00.0,36.4,29.5,09.8,0000.0,0003.52,0013.30,0001.89
2023-04-11 07:20:00,,0834.9,5.00,0.00,28.0,26.2,00.0,36.4,29.5,09.8,0000.0,0003.57,0013.20,0001.90
2023-04-11 07:21:00,,0834.9,5.01,0.00,28.0,26.2,00.0,36.4,29.5,09.8,0000.0,0003.57,0012.26,0001.91
2023-04-11 07:22:00,,0834.9,5.00,0.00,28.0,26.1,00.0,36.4,29.5,09.8,0000.0,0003.54,0012.04,0001.92
2023-04-11 07:23:00,,0835.1,5.00,0.00,28.0,26.1,00.0,36.4,29.5,09.9,0000.0,0003.58,0011.61,0001.92
2023-04-11 07:24:00,,0835.2,5.00,0.00,28.0,26.1,00.0,36.4,29.5,09.9,0000.0,0003.59,0010.83,0001.90
2023-04-11 07:25:00,,0835.4,5.01,0.00,27.9,26.1,00.0,36.4,29.4,09.9,0000.0,0003.61,0011.34,0001.91
2023-04-11 07:26:00,,0835.3,5.00,0.00,27.9,26.1,00.0,36.4,29.4,09.9,0000.0,0003.64,0011.43,0001.91
2023-04-11 07:27:00,,0835.4,5.01,0.00,27.9,26.1,00.0,36.4,29.4,09.9,0000.0,0003.67,0010.43,0001.91
2023-04-11 07:28:00,,0835.4,5.00,0.00,27.9,26.1,00.0,36.3,29.4,09.9,0000.0,0003.65,0009.83,0001.92
2023-04-11 07:29:00,,0835.3,4.99,0.00,27.9,26.1,00.0,36.3,29.4,09.9,0000.0,0003.60,0009.47,0001.89
2023-04-11 07:30:00,,0835.0,4.99,0.00,27.9,26.1,00.0,36.3,29.4,09.9,0000.0,0003.59,0009.58,0001.85
2023-04-11 07:31:00,,0834.8,5.00,0.00,27.9,26.1,00.0,36.3,29.4,09.9,0000.0,0003.55,0009.44,0001.84
2023-04-11 07:32:00,,0834.7,5.00,0.00,27.9,26.0,00.0,36.3,29.4,09.9,0000.0,0003.55,0009.80,0001.84
2023-04-11 07:33:00,,0834.7,5.01,0.00,27.9,26.0,00.0,36.3,29.4,09.9,0000.0,0003.59,0009.94,0001.84
2023-04-11 07:34:00,,0834.7,5.00,0.00,27.9,26.0,00.0,36.3,29.3,09.9,0000.0,0003.61,0010.53,0001.85
2023-04-11 07:35:00,,0834.7,5.00,0.00,27.9,26.0,00.0,36.3,29.3,09.9,0000.0,0003.64,0010.78,0001.86
2023-04-11 07:36:00,,0834.7,5.00,0.00,27.8,26.0,00.0,36.3,29.3,09.9,0000.0,0003.58,0010.29,0001.85
2023-04-11 07:37:00,,0834.7,5.00,0.00,27.8,26.0,00.0,36.2,29.3,09.9,0000.0,0003.53,0010.66,0001.83
2023-04-11 07:38:00,,0834.7,5.00,0.00,27.8,26.0,00.0,36.2,29.3,09.9,0000.0,0003.49,0011.00,0001.83
2023-04-11 07:39:00,,0834.7,5.00,0.00,27.8,26.0,00.0,36.2,29.3,09.9,0000.0,0003.47,0010.96,0001.81
2023-04-11 07:40:00,,0834.7,5.00,0.00,27.8,25.9,00.0,36.2,29.3,09.9,0000.0,0003.47,0010.98,0001.82
2023-04-11 07:41:00,,0834.7,5.00,0.00,27.8,25.9,00.0,36.2,29.3,09.9,0000.0,0003.51,0010.99,0001.83
2023-04-11 07:42:00,,0834.7,5.00,0.00,27.8,25.9,00.0,36.2,29.3,09.9,0000.0,0003.54,0011.31,0001.83
2023-04-11 07:43:00,,0834.7,5.01,0.00,27.8,25.9,00.0,36.2,29.3,09.9,0000.0,0003.58,0011.22,0001.83
2023-04-11 07:44:00,,0835.1,5.00,0.00,27.8,25.9,00.0,36.2,29.3,09.9,0000.0,0003.61,0011.09,0001.82
2023-04-11 07:45:00,,0835.2,5.00,0.00,27.8,25.9,00.0,36.2,29.3,09.9,0000.0,0003.60,0011.43,0001.82
2023-04-11 07:46:00,,0834.8,4.99,0.00,27.8,25.9,00.0,36.2,29.2,09.8,0000.0,0003.54,0011.31,0001.81
2023-04-11 07:47:00,,0835.0,5.01,0.00,27.7,25.9,00.0,36.2,29.2,09.8,0000.0,0003.49,0011.22,0001.79
2023-04-11 07:48:00,,0835.0,5.00,0.00,27.7,25.9,00.0,36.2,29.2,09.8,0000.0,0003.48,0010.30,0001.81
2023-04-11 07:49:00,,0834.6,5.00,0.00,27.7,25.9,00.0,36.1,29.2,09.8,0000.0,0003.53,0009.79,0001.82
2023-04-11 07:50:00,,0834.6,5.00,0.00,27.7,25.9,00.0,36.1,29.2,09.9,0000.0,0003.55,0010.29,0001.83
2023-04-11 07:51:00,,0834.6,5.00,0.00,27.7,25.9,00.0,36.1,29.2,09.9,0000.0,0003.56,0010.81,0001.82
2023-04-11 07:52:00,,0834.7,5.00,0.00,27.7,25.9,00.0,36.1,29.2,09.9,0000.0,0003.57,0011.13,0001.82
2023-04-11 07:53:00,,0834.9,5.00,0.00,27.7,25.9,00.0,36.1,29.2,10.0,0000.0,0003.55,0010.71,0001.84
2023-04-11 07:54:00,,0834.9,5.00,0.00,27.7,25.9,00.0,36.1,29.2,10.0,0000.0,0003.57,0011.00,0001.85
2023-04-11 07:55:00,,0835.0,5.00,0.00,27.7,25.8,00.0,36.1,29.2,10.0,0000.0,0003.53,0010.88,0001.85
2023-04-11 07:56:00,,0835.0,5.00,0.00,27.6,25.8,00.0,36.1,29.1,09.9,0000.0,0003.49,0010.67,0001.84
2023-04-11 07:57:00,,0834.6,5.00,0.00,27.6,25.8,00.0,36.1,29.1,10.0,0000.0,0003.43,0009.89,0001.82
2023-04-11 07:58:00,,0834.5,5.01,0.00,27.6,25.8,00.0,36.1,29.1,10.0,0000.0,0003.45,0009.97,0001.82
2023-04-11 07:59:00,,0834.5,5.00,0.00,27.6,25.8,00.0,36.0,29.1,10.0,0000.0,0003.48,0010.04,0001.82
